Theta_e
306 298 297 296 299 301 302 303 303 302 302 301 301 300 298 299 300 301 303 305 306 303 301 301 302 303 304 304 307 311 313 311 311 311 319 320 321 321 323 326 328 330 330 333 335 335 337 338 338 338 337 338 337 335 333 334 333 333 334 335 334 337 337 335 335 335 336 336 336 338 336 333 333 332 334 334 334 335 335 335 334 335 336 340 342 341
306 298 299 301 302 304 303 304 304 303 303 300 300 299 298 299 298 301 302 305 306 303 301 304 303 303 304 305 307 312 314 310 310 312 317 319 321 320 321 324 327 330 332 334 334 335 337 337 337 337 336 334 333 332 329 332 333 336 337 335 335 337 337 336 337 336 337 340 338 336 335 332 331 330 330 331 333 334 335 335 335 335 335 335 335 335
299 296 300 303 305 306 306 305 304 302 301 301 299 298 297 299 301 303 303 304 305 304 300 303 301 302 304 306 309 315 313 312 313 314 318 318 318 317 317 323 326 329 330 332 333 333 334 336 337 336 334 330 330 330 330 330 333 334 336 335 336 336 335 336 337 336 338 341 340 337 333 330 329 331 333 332 332 333 331 335 335 335 335 334 333 334
296 298 302 305 306 304 304 303 303 302 302 299 298 297 296 299 297 296 302 304 305 303 301 303 301 302 305 307 311 314 312 314 315 316 318 320 318 315 320 324 326 328 329 329 331 331 332 335 332 335 331 328 328 328 328 331 333 335 333 333 335 336 337 337 339 339 342 342 342 338 336 334 333 331 332 334 332 331 330 331 333 334 334 332 332 330
298 303 305 305 305 303 301 302 300 298 297 300 300 298 298 298 300 299 300 303 306 305 305 304 302 300 303 304 307 312 317 318 317 318 320 320 321 322 324 326 328 329 329 329 329 331 331 330 329 326 326 325 327 329 330 331 333 333 334 335 337 337 338 338 339 341 342 341 339 337 336 335 334 333 331 329 327 330 330 330 331 331 332 331 331 331
300 305 307 302 302 301 300 298 299 299 296 297 300 301 301 302 301 300 303 302 300 299 303 300 294 295 302 304 305 311 312 314 317 316 317 320 322 323 322 321 328 330 330 330 328 325 321 322 322 324 325 329 329 330 331 335 333 330 330 335 337 338 336 338 340 341 339 337 335 333 330 328 327 326 327 325 325 325 328 327 331 331 331 331 331 330
300 306 304 301 302 300 299 299 301 300 296 296 297 302 302 302 302 302 301 301 296 293 301 303 293 290 301 301 303 306 307 307 313 315 317 320 320 322 321 322 325 328 329 324 321 320 320 321 324 323 325 328 327 331 335 335 329 328 330 331 332 334 336 338 340 340 338 336 334 333 330 329 327 326 327 329 330 329 326 329 330 330 332 330 330 331
301 302 302 301 301 299 298 297 302 300 297 296 305 302 302 302 301 301 302 300 298 301 304 303 300 294 294 299 305 309 307 307 312 313 314 314 321 318 319 322 323 327 324 322 323 323 324 324 325 323 325 330 330 333 333 330 328 329 329 329 329 332 336 337 339 340 338 334 333 332 330 329 327 327 329 330 329 330 329 327 328 328 328 329 329 330
302 300 301 299 300 298 298 300 304 303 298 301 305 304 301 301 302 301 300 300 300 299 295 299 301 294 294 299 307 307 305 308 308 309 310 314 317 319 319 319 320 324 321 325 325 325 326 326 326 325 326 332 332 333 330 328 329 330 330 329 331 333 337 337 337 337 334 329 329 332 330 327 328 329 329 329 328 327 329 328 327 327 327 329 329 328
302 302 302 301 299 297 301 302 304 303 298 304 305 305 304 303 302 302 299 299 299 296 291 298 299 292 292 300 302 304 303 304 305 308 313 315 314 317 319 322 321 325 325 327 328 328 328 329 329 330 330 331 333 334 330 329 330 329 330 330 331 333 336 336 334 334 333 331 328 325 331 326 326 328 327 326 326 327 328 327 326 325 325 325 326 327
304 307 307 302 300 302 304 305 304 303 302 307 305 302 301 301 301 302 301 300 297 290 293 299 301 297 290 298 300 299 300 305 306 309 311 313 315 316 318 321 324 326 326 327 327 329 330 331 333 332 330 331 334 334 330 329 331 332 329 326 326 325 330 333 332 335 334 331 327 326 329 327 327 327 327 325 325 325 326 324 325 325 324 324 322 323
301 303 301 303 306 305 304 303 305 305 304 303 302 300 299 297 299 298 298 299 289 287 296 299 300 300 289 294 302 306 307 306 308 308 309 310 312 312 315 322 323 325 326 327 327 325 327 328 331 331 330 331 332 331 329 331 332 331 328 326 325 327 328 332 332 334 332 330 328 328 331 328 329 328 326 325 324 324 324 325 324 324 323 322 322 323
298 299 302 302 306 304 302 300 301 302 303 301 301 299 294 291 291 287 292 287 288 287 295 300 300 296 295 301 303 305 307 310 312 311 310 309 311 313 314 317 321 325 326 326 325 325 325 327 328 328 330 330 332 330 330 330 331 330 328 328 327 327 329 331 332 333 332 332 331 331 331 330 329 328 326 325 325 325 324 324 323 322 320 320 320 321
295 300 300 301 303 304 303 296 297 296 299 299 297 297 293 288 287 283 287 289 290 294 300 298 301 295 299 301 307 308 311 312 313 315 315 313 312 315 315 319 322 325 327 325 325 325 325 326 327 328 329 329 330 332 330 329 330 331 329 329 329 330 331 333 333 332 332 333 333 331 329 329 329 328 327 325 325 325 324 323 322 322 320 320 321 321
288 290 296 299 297 304 302 301 302 300 299 298 301 300 295 293 288 283 287 284 287 289 296 300 295 291 292 299 308 311 313 314 315 317 318 318 319 320 318 320 321 323 325 325 325 326 326 326 328 327 329 330 330 330 330 328 329 331 331 331 331 329 330 332 334 334 334 332 331 330 329 329 330 328 326 325 326 326 324 323 323 323 322 321 321 322
294 294 299 303 303 304 300 303 305 303 301 302 302 303 298 294 298 290 291 291 289 290 292 295 292 297 297 307 310 312 313 313 316 317 317 318 319 319 319 318 319 320 321 323 325 326 327 329 329 328 327 329 329 329 330 329 329 331 332 333 331 329 329 331 333 333 334 332 332 332 331 330 330 329 328 326 326 325 325 324 323 323 324 323 322 324
295 293 301 302 304 303 302 304 303 305 293 300 300 296 299 304 300 293 291 297 292 289 288 295 295 299 303 304 306 309 309 312 314 313 316 316 316 318 316 317 318 319 320 322 323 325 326 327 328 328 327 327 328 327 328 330 330 330 331 331 330 330 330 330 332 332 332 332 331 330 331 331 329 329 327 325 327 326 326 326 325 324 324 325 324 324
293 293 300 300 298 303 306 306 305 305 305 302 293 298 304 305 303 297 288 290 288 285 286 294 290 294 295 289 303 304 306 308 309 312 314 316 317 316 316 318 318 320 320 323 324 326 326 326 327 326 326 327 326 326 328 329 330 329 329 330 330 329 329 330 331 331 331 331 331 331 330 332 331 328 328 327 327 326 325 325 326 326 324 323 323 324
299 290 296 300 301 303 305 304 301 305 306 301 299 305 295 290 289 296 291 284 284 283 285 290 294 294 294 296 300 301 303 307 308 311 311 312 311 315 316 317 319 320 320 321 321 322 324 324 324 325 325 326 327 328 329 328 327 328 330 331 331 329 329 330 329 329 329 330 331 330 329 332 332 330 328 328 328 327 324 324 325 325 325 325 324 323
303 291 293 301 300 302 302 300 293 298 303 304 304 301 304 300 295 290 291 293 292 286 285 285 293 289 297 299 301 301 305 308 305 308 308 310 311 314 315 316 316 318 319 319 319 321 322 322 324 326 326 326 326 326 328 329 328 327 328 329 329 329 328 327 328 328 327 328 330 330 329 332 331 330 329 328 327 325 324 323 325 324 325 324 324 324
294 300 288 297 302 302 295 298 295 298 297 297 297 296 298 300 302 298 298 293 291 287 286 286 285 292 300 304 302 303 308 309 310 311 313 312 312 316 316 317 317 318 318 318 319 319 320 321 323 324 325 326 327 327 327 327 327 327 327 328 328 328 326 326 327 328 329 329 329 329 329 331 332 332 329 327 327 325 325 325 325 325 326 324 323 324
294 294 290 295 294 295 296 301 300 300 300 299 298 296 297 296 293 289 288 296 293 291 287 287 285 294 302 308 306 307 309 309 312 309 313 314 315 316 316 315 317 317 317 318 319 320 320 320 321 321 323 324 324 326 325 325 326 325 327 327 328 326 327 327 326 327 328 328 328 326 330 332 332 332 331 331 326 325 323 323 323 325 324 324 323 324
304 300 296 290 295 295 298 300 303 302 302 301 301 298 299 299 297 293 286 289 295 294 296 294 288 289 303 308 309 309 311 311 313 313 312 313 314 315 316 316 316 318 317 317 318 320 320 321 321 321 323 323 323 324 325 325 326 325 326 327 328 327 326 327 324 326 328 329 327 326 330 331 331 330 332 331 328 325 323 323 323 323 323 323 322 323
305 292 292 293 298 300 301 301 302 302 301 299 300 301 300 296 297 295 294 296 292 292 290 290 286 291 304 309 310 309 311 313 313 312 310 310 311 313 314 314 316 317 321 320 321 321 321 322 322 322 320 321 322 323 323 325 326 327 327 327 326 327 326 326 326 326 327 326 327 328 330 330 331 330 331 330 329 325 324 323 324 323 323 322 322 321
291 295 294 290 289 291 295 297 297 301 300 298 298 300 300 300 300 300 299 300 290 293 294 290 285 291 305 308 308 308 309 309 310 311 312 310 311 313 315 318 319 321 320 320 320 321 321 321 318 320 318 318 320 320 326 325 326 327 326 327 326 327 328 327 326 326 325 325 325 327 328 329 330 330 331 331 330 329 325 324 325 325 321 322 321 321
295 295 292 286 283 281 282 284 287 289 294 298 299 299 299 298 299 298 291 294 288 293 294 290 290 297 304 307 305 306 307 307 309 310 312 313 315 312 313 318 319 320 320 320 319 321 321 320 321 320 321 318 320 325 325 323 323 324 325 325 326 324 324 326 326 326 326 325 325 326 327 328 329 329 329 329 329 328 326 324 323 323 323 323 321 322
298 301 297 292 290 288 288 290 295 296 297 292 296 297 298 299 300 301 298 292 289 292 291 293 294 295 298 303 304 306 306 309 311 312 313 313 314 315 317 317 317 317 318 320 320 321 322 322 323 323 324 324 325 324 326 322 323 324 324 323 325 325 326 326 326 326 326 327 327 326 327 328 328 328 328 328 329 328 326 323 323 322 321 322 321 322
300 293 297 297 296 294 295 293 296 296 294 295 296 297 298 298 299 298 291 290 298 292 287 292 298 296 296 301 303 305 306 308 311 312 313 313 314 314 314 315 314 316 318 319 320 319 320 321 322 322 322 323 322 321 323 323 322 322 322 323 325 326 326 327 327 327 326 325 326 325 326 326 325 328 328 329 328 328 325 325 324 322 321 322 322 322
299 292 298 297 296 295 295 295 294 294 294 294 295 296 296 298 299 294 294 298 298 290 289 295 297 296 298 301 303 305 306 307 308 309 311 313 314 315 314 312 315 315 314 316 318 318 319 318 319 319 319 319 321 321 321 322 321 324 323 322 323 326 326 327 326 325 323 321 322 322 322 324 322 325 327 327 328 328 326 326 325 324 322 323 323 323
300 295 299 297 295 295 294 293 294 293 293 293 294 294 295 296 297 298 297 298 299 296 298 298 297 296 299 299 303 305 307 308 309 311 311 312 311 313 313 313 313 311 314 316 316 317 317 316 316 318 319 318 320 320 320 320 321 322 321 323 324 325 325 326 325 324 323 322 322 322 322 324 324 325 328 327 326 327 328 328 328 328 325 323 323 326
299 292 296 298 294 294 295 294 294 294 293 291 294 295 295 296 295 296 296 297 298 297 297 298 296 294 300 304 304 308 309 309 309 308 310 310 308 311 311 312 312 310 310 312 314 314 314 315 315 316 317 319 320 320 320 321 321 322 322 323 323 322 323 325 325 324 324 324 324 325 325 326 326 325 325 325 327 326 321 321 323 323 326 325 325 326
300 294 297 295 289 289 293 293 292 292 292 291 292 293 293 293 290 294 292 297 295 294 297 294 292 292 300 304 306 307 307 306 304 304 304 304 306 306 304 309 310 311 311 312 312 312 313 313 314 315 317 318 320 321 321 320 319 319 319 320 321 322 324 325 324 324 324 324 325 325 325 325 324 324 323 323 323 324 324 325 322 322 324 326 325 326
298 294 292 292 288 287 293 294 292 291 289 286 287 291 293 294 295 295 295 295 295 296 292 290 293 299 300 302 301 302 303 302 302 304 303 302 302 301 301 303 308 309 310 313 311 311 311 310 312 314 315 315 316 316 319 320 320 320 318 318 319 320 323 323 322 322 323 324 324 323 324 323 324 323 322 322 321 320 319 322 322 322 322 322 324 325
298 298 293 296 286 288 291 293 294 288 281 284 296 299 297 294 294 291 291 293 295 297 295 298 298 299 299 299 299 298 298 298 300 301 302 301 299 299 299 300 301 302 301 301 304 306 307 308 310 312 313 314 314 315 317 319 319 319 321 321 320 319 320 319 319 319 320 322 323 323 324 324 324 323 323 322 321 321 321 320 320 321 321 323 324 324
297 296 293 297 289 288 291 290 285 279 283 294 298 299 300 299 297 295 294 296 295 297 298 297 298 297 297 298 299 299 300 300 300 299 299 300 300 299 298 296 299 300 300 300 300 299 299 300 302 305 307 310 313 315 315 314 317 318 318 318 316 317 317 317 317 319 319 320 321 322 323 323 323 321 322 322 321 321 320 321 322 321 322 323 323 322
292 293 294 290 291 291 288 287 278 281 291 295 295 297 300 299 299 297 294 296 298 298 299 297 297 298 298 298 298 299 299 299 299 299 299 300 300 299 298 298 299 300 299 298 297 298 298 299 299 300 303 305 307 308 310 311 313 314 314 315 314 314 313 313 313 313 315 316 317 318 319 319 318 319 319 318 318 319 319 319 320 320 320 320 320 320
299 296 293 289 292 284 286 286 284 290 291 291 291 293 296 294 296 294 287 291 298 299 299 298 298 298 298 298 299 299 300 299 297 297 300 299 299 298 297 296 296 295 300 300 301 300 300 300 300 302 305 306 305 305 306 309 311 311 311 311 311 311 311 311 311 311 312 312 313 314 315 315 316 316 316 316 317 316 317 317 318 318 318 316 316 316
299 292 293 289 288 291 288 285 284 283 281 286 294 297 298 299 298 299 295 290 298 299 300 299 298 298 298 299 299 300 301 296 293 294 299 300 300 299 300 300 301 301 301 301 301 302 302 302 302 303 304 304 303 305 307 309 309 309 308 308 309 309 310 310 311 311 312 312 312 313 313 314 313 314 314 314 315 315 316 316 317 317 316 315 314 314
296 296 293 290 287 288 286 283 282 281 282 290 293 295 296 297 299 299 293 287 295 298 300 300 298 299 299 299 298 300 298 293 290 294 299 300 300 301 299 299 300 301 302 303 304 303 305 305 306 306 306 305 303 305 307 307 307 305 305 306 308 309 308 309 309 310 311 311 312 312 311 312 312 313 313 314 314 315 314 315 315 315 316 315 315 315
294 292 291 288 286 287 286 284 283 284 282 290 294 294 295 298 295 294 283 283 293 298 298 299 298 298 299 299 299 297 295 290 290 295 299 300 300 300 300 299 299 299 299 300 303 305 304 304 304 304 304 303 303 305 306 306 306 305 305 306 306 306 305 306 308 310 311 311 312 313 313 314 313 312 311 311 313 314 314 314 314 314 314 314 314 312
289 289 290 286 287 287 285 285 285 284 289 294 294 295 296 299 296 285 281 287 295 297 298 299 298 298 299 297 298 293 295 297 297 299 301 300 299 299 300 301 301 301 300 299 299 300 303 302 302 301 302 303 304 304 305 305 305 304 305 306 306 305 306 307 308 309 310 311 311 311 311 312 313 313 312 313 313 313 313 313 313 314 313 313 313 312
287 287 288 288 285 285 286 284 283 284 288 293 295 295 297 293 283 283 290 298 298 297 298 298 296 297 297 296 296 296 297 298 299 299 299 299 298 299 299 300 301 301 301 300 299 298 300 300 301 301 302 303 302 303 303 303 304 304 304 304 305 306 307 308 308 308 308 309 309 309 311 312 313 313 313 313 312 313 312 313 312 312 312 311 311 311
286 284 284 284 286 286 286 283 281 277 286 294 294 293 295 286 287 293 296 297 298 296 296 296 296 296 297 295 297 297 297 297 298 298 298 298 298 298 298 297 298 298 298 299 299 298 298 299 299 300 301 302 303 302 302 301 300 301 302 303 306 307 307 307 307 307 307 308 308 309 309 310 312 313 315 314 314 313 313 313 312 311 311 311 311 310
292 284 285 286 288 283 283 279 280 286 289 295 295 288 291 293 296 296 295 293 295 296 295 295 295 296 296 296 295 296 296 296 296 297 297 297 297 298 298 299 300 299 299 299 299 299 298 298 298 299 300 301 301 302 302 302 300 300 300 301 306 306 306 306 306 306 306 307 307 308 308 309 310 311 312 314 314 312 314 313 313 312 312 311 310 310
291 289 288 285 290 286 284 285 290 293 294 296 296 295 295 296 297 297 296 295 294 295 297 295 295 296 296 296 295 295 294 295 294 295 295 296 295 296 296 296 298 299 298 298 298 299 298 297 297 298 299 300 300 300 301 302 301 301 300 303 304 304 304 304 304 305 305 306 306 306 307 308 309 309 311 313 313 312 311 312 312 311 312 312 310 310
293 293 295 292 289 293 294 294 294 293 294 294 296 296 296 296 297 297 296 294 294 294 295 295 295 294 294 294 294 293 293 294 293 293 294 294 295 295 296 296 296 297 297 297 297 297 296 297 297 297 297 299 300 300 301 301 301 300 301 302 303 304 304 303 303 303 303 304 304 305 305 306 307 308 309 310 311 312 312 311 311 310 310 310 310 310
292 294 292 287 292 288 283 292 291 292 293 294 294 296 297 297 296 295 294 294 294 294 294 295 295 294 294 295 294 292 292 294 294 294 294 294 294 293 294 293 295 295 295 294 295 295 296 297 296 295 296 296 297 298 299 300 300 300 300 300 301 302 303 302 302 302 302 302 302 303 304 305 305 306 307 308 308 309 311 310 310 310 309 309 309 309
288 294 290 289 289 286 286 291 292 294 294 295 295 294 294 295 296 296 296 295 296 296 296 295 297 295 294 294 294 292 292 293 293 293 293 294 294 294 294 295 294 294 295 295 295 295 294 294 294 294 294 294 296 297 298 298 299 300 300 300 301 302 301 301 301 302 302 302 302 302 302 302 296 300 304 305 307 307 308 310 310 309 309 309 309 308
291 292 285 290 287 289 292 292 292 294 293 294 294 295 295 295 294 295 296 295 295 295 295 296 295 295 294 295 295 294 294 294 295 294 293 294 294 295 295 295 295 295 295 295 295 295 294 294 293 294 294 295 296 297 297 298 299 300 300 301 301 301 300 300 299 301 301 301 301 300 301 302 302 302 303 304 305 305 305 306 307 309 311 311 312 311
290 286 290 289 285 284 285 288 291 285 285 290 292 294 294 295 295 294 294 295 295 294 295 294 294 296 296 296 295 295 294 294 295 295 294 294 294 295 296 295 295 295 295 296 296 295 295 295 294 294 294 294 296 297 297 298 298 299 299 300 300 300 299 300 300 300 300 300 300 301 301 301 301 301 301 301 302 303 305 298 297 307 309 312 291 287
289 290 290 285 285 284 289 292 293 292 291 292 292 294 295 296 295 294 293 293 294 295 295 295 294 294 295 296 297 295 294 294 294 295 294 294 294 295 295 295 294 294 294 295 294 294 295 295 295 295 295 295 296 296 296 296 297 298 298 299 299 299 299 299 298 298 299 299 300 299 301 301 301 301 301 301 301 302 301 304 305 285 286 290 292 291
Wind_Speed
8 10 10 10 10 10 12 12 13 9 11 10 8 11 12 10 9 13 8 11 9 9 12 14 14 12 12 16 12 10 9 10 11 12 11 11 11 12 11 11 10 10 11 10 10 10 11 10 8 6 7 8 7 5 3 7 11 9 9 10 11 10 11 9 8 8 7 7 6 5 4 4 5 4 3 3 3 4 4 4 5 5 4 4 4 5
9 10 10 11 12 10 13 14 7 3 6 8 6 6 8 9 9 12 12 11 6 8 8 10 12 15 14 16 12 9 9 10 12 12 13 13 12 9 10 12 12 11 9 11 10 10 11 10 8 7 6 8 7 5 4 6 13 9 10 10 10 9 9 8 7 8 7 5 6 6 5 5 5 5 4 4 4 4 5 5 5 4 5 5 4 4
9 11 10 11 7 4 4 3 2 6 6 11 9 7 10 9 10 11 6 7 7 10 10 13 14 11 14 10 10 10 8 8 11 12 12 14 12 13 14 12 11 10 10 11 10 9 9 10 9 6 3 7 2 2 5 7 6 9 10 9 9 9 8 8 9 7 6 5 5 5 6 5 5 4 4 4 5 4 5 4 5 5 4 4 4 4
9 11 12 11 6 6 7 7 5 7 9 9 10 10 9 8 11 7 7 10 9 7 10 10 10 11 10 6 8 9 11 10 11 12 12 12 12 14 14 12 11 11 11 11 10 9 7 6 6 2 7 7 3 5 8 10 9 8 8 8 8 10 8 9 8 6 7 7 6 5 7 5 5 6 6 5 5 5 5 5 5 4 3 3 3 2
9 2 12 12 6 7 9 9 10 9 10 12 12 11 10 12 10 8 5 10 9 9 12 10 8 9 9 10 9 8 5 7 9 10 11 11 12 13 11 11 11 11 12 9 8 7 3 6 7 8 6 3 5 6 5 5 5 5 7 6 8 9 9 9 7 8 8 7 7 7 7 7 8 6 5 5 5 5 5 5 5 4 4 4 4 4
14 6 3 2 6 9 10 10 12 11 10 11 14 14 12 7 8 7 3 7 7 10 11 12 10 9 10 14 13 11 9 11 11 11 10 11 10 11 11 11 9 9 7 8 6 12 10 9 4 7 8 8 8 8 7 6 6 9 4 4 6 4 6 7 8 8 7 6 6 7 7 7 7 6 6 6 6 6 5 6 5 5 5 5 4 3
8 9 7 9 9 10 11 11 11 13 11 10 11 16 15 11 7 6 10 9 8 7 9 13 11 4 9 12 15 14 14 15 10 9 9 8 10 6 6 6 8 8 7 12 10 11 12 14 15 12 10 10 9 9 8 7 13 9 4 4 7 3 5 5 5 5 5 5 5 6 6 6 6 6 5 6 5 5 6 5 6 6 5 5 5 5
11 5 5 7 9 10 10 10 10 13 12 9 3 15 13 11 7 9 9 10 7 1 8 9 9 8 8 10 13 13 13 13 11 7 7 9 8 10 6 1 2 6 10 8 8 9 10 10 7 8 8 9 10 11 10 12 11 8 6 8 3 3 4 4 5 4 3 4 6 5 4 5 5 4 7 6 5 5 6 6 7 6 5 6 5 4
12 10 8 10 10 9 10 10 9 13 12 3 2 10 12 13 9 10 11 9 7 6 9 8 12 9 2 8 11 10 11 11 9 10 4 8 6 2 4 7 2 6 12 11 9 9 10 10 11 10 9 9 14 13 13 14 9 5 7 8 4 5 5 6 5 5 7 8 9 3 3 5 4 7 6 6 6 6 6 7 6 6 6 6 6 6
7 12 11 11 11 10 9 12 11 12 13 8 10 8 9 10 10 10 10 9 8 8 7 9 11 8 8 6 10 13 13 9 8 10 13 8 9 8 7 9 13 11 12 10 10 10 8 9 9 8 11 11 12 14 18 16 13 12 10 8 7 5 5 6 6 6 8 6 7 5 7 2 6 5 6 6 6 7 6 7 6 6 6 6 5 5
4 2 2 12 12 10 6 4 4 11 14 6 7 9 8 8 8 8 8 8 7 9 9 10 10 9 8 7 7 10 12 11 10 5 11 13 9 8 7 11 10 10 9 8 10 10 9 8 7 9 11 12 10 12 18 14 12 14 14 12 10 5 3 4 6 7 7 6 7 4 7 4 6 6 6 7 7 7 7 7 7 6 6 6 6 5
8 10 10 8 12 4 2 4 7 7 11 7 8 9 8 9 9 8 9 9 6 7 9 11 9 9 8 9 8 4 6 11 11 13 13 8 6 6 7 8 9 11 11 9 9 10 10 10 7 9 10 11 11 12 11 12 11 14 11 11 12 9 7 7 7 8 6 5 5 8 5 6 6 6 6 7 8 7 8 7 7 6 7 6 6 6
11 10 10 13 10 10 9 9 9 11 9 9 9 11 10 6 5 7 7 9 8 6 7 8 10 8 11 6 6 8 7 10 8 11 10 9 7 4 11 13 8 11 10 11 11 10 10 9 9 9 10 10 12 11 14 13 14 15 12 13 13 12 11 9 8 8 8 6 5 7 7 7 6 7 7 7 8 7 7 7 7 8 7 7 6 6
10 11 14 13 10 11 11 10 9 11 11 11 12 10 11 8 8 7 8 5 8 9 2 5 2 8 3 9 17 12 6 7 7 11 13 14 13 13 9 11 15 11 12 12 12 11 10 10 10 9 9 10 10 13 14 12 12 13 14 14 13 13 14 10 10 10 9 8 8 8 8 7 7 7 7 7 7 7 7 7 8 8 7 7 7 7
8 12 14 14 10 12 13 13 8 8 10 12 12 11 9 10 3 5 7 7 7 5 8 7 3 5 11 6 5 9 11 10 9 11 12 11 10 11 12 13 14 14 11 11 11 10 10 10 10 8 7 8 8 11 13 12 9 12 14 14 14 15 14 12 12 11 11 9 8 9 9 8 7 7 6 6 6 6 7 7 8 8 7 8 8 7
14 9 9 18 10 14 15 15 14 9 9 10 12 10 11 6 9 9 2 3 3 4 6 6 4 4 2 11 8 5 5 7 7 11 9 9 10 11 11 11 10 10 9 9 11 11 11 10 9 9 8 8 10 12 11 12 12 10 9 10 14 17 15 11 11 11 11 11 8 8 8 9 8 6 6 6 6 6 7 7 8 8 8 8 8 7
7 9 9 17 15 11 15 13 13 9 9 8 11 12 8 5 8 5 4 4 3 4 4 2 8 7 10 10 13 10 7 8 9 9 8 9 9 9 10 10 9 9 9 8 9 9 9 8 8 8 9 8 9 11 12 12 13 13 10 7 10 14 14 12 10 9 9 9 10 11 10 8 9 8 7 6 7 7 7 7 8 8 8 8 8 8
6 7 5 8 16 12 11 12 14 13 9 4 8 9 6 3 8 4 4 4 6 8 6 7 6 9 8 3 9 14 12 7 9 8 11 9 7 9 9 10 10 10 9 9 8 8 8 7 8 8 7 10 11 11 12 13 11 13 12 11 10 11 13 13 9 8 6 6 7 8 9 9 8 7 7 7 7 7 8 8 8 8 8 8 8 8
8 8 6 11 12 14 11 8 11 12 12 12 6 3 8 6 10 6 3 6 5 7 6 7 6 8 9 5 11 11 12 11 11 10 11 8 9 8 10 12 12 11 10 10 9 9 8 7 7 7 8 9 10 10 11 11 11 11 11 11 11 12 9 7 6 6 4 3 3 5 7 9 8 8 8 8 7 7 8 9 9 9 9 9 9 8
4 8 7 8 11 10 11 11 12 11 12 15 11 9 9 8 7 6 5 6 6 6 6 5 9 5 7 2 11 5 9 10 11 8 13 11 9 7 9 10 11 10 10 9 8 8 8 8 9 9 10 12 11 9 9 9 8 9 10 10 9 9 10 9 8 6 7 6 3 5 7 8 8 6 5 7 8 8 9 9 10 10 10 10 8 8
4 5 6 4 12 7 10 10 13 11 11 13 12 10 8 8 2 3 3 8 7 5 5 5 7 4 6 1 7 4 9 8 9 8 11 11 11 8 11 9 10 9 8 8 7 7 8 7 7 7 8 9 10 11 10 9 9 10 10 10 8 9 10 9 8 7 6 5 5 7 9 8 8 8 6 8 8 8 9 9 10 10 10 10 9 9
4 4 8 4 8 10 8 11 16 17 14 12 11 11 11 9 10 9 7 2 9 7 4 4 5 7 5 8 13 12 10 9 10 11 9 12 12 10 9 9 9 9 10 8 8 8 7 8 8 9 8 8 9 9 10 9 9 9 10 10 10 9 9 10 9 7 6 6 3 9 9 9 8 8 6 6 10 9 10 9 9 10 10 10 9 10
2 3 6 8 8 7 13 3 5 4 5 10 9 12 12 10 9 9 9 8 9 9 8 7 4 2 4 5 6 11 10 11 10 11 11 10 11 10 8 9 9 9 10 10 8 8 7 7 8 7 7 7 8 8 9 9 9 8 8 8 8 9 9 9 8 7 6 7 9 11 7 7 7 9 8 9 10 9 10 9 9 10 10 10 10 9
1 3 7 11 12 10 5 7 4 7 7 10 10 8 6 9 8 9 8 4 5 4 7 6 6 4 4 3 5 7 11 11 10 9 10 8 7 8 7 8 9 10 10 11 9 8 8 7 7 7 5 6 6 7 7 6 5 6 6 7 7 8 9 7 7 9 8 9 9 8 6 6 7 10 11 11 9 11 10 9 9 9 10 10 9 10
3 4 7 5 4 8 10 8 9 8 9 11 9 9 12 11 10 6 8 4 5 9 9 5 7 3 3 4 8 7 11 10 10 7 10 9 10 9 9 9 9 10 10 10 9 8 8 8 8 9 10 8 8 8 8 7 6 7 7 7 8 9 9 10 10 10 10 10 9 8 7 8 8 9 9 8 8 10 10 10 9 8 9 9 10 10
5 3 5 9 7 9 10 8 5 6 11 9 12 8 5 11 13 8 5 6 6 7 10 7 2 4 2 6 9 10 10 9 11 14 13 10 13 14 10 10 10 9 9 10 9 9 9 8 6 6 6 8 8 7 8 8 5 7 7 6 8 10 10 11 10 11 10 10 10 9 10 9 8 9 9 8 8 9 9 9 9 8 7 8 9 9
3 5 8 9 7 3 1 4 9 13 6 10 11 10 10 8 9 8 7 6 10 8 9 5 3 7 5 4 6 7 9 8 9 9 9 12 10 11 9 9 9 9 9 9 8 8 7 6 6 6 5 5 5 6 6 9 7 6 7 8 9 10 10 9 9 9 10 11 10 9 10 10 10 9 9 10 9 9 10 10 9 9 9 8 9 9
5 4 10 10 9 5 3 7 11 14 13 6 6 6 3 4 3 4 5 7 7 4 2 8 3 9 8 3 6 7 9 8 5 7 8 8 8 9 10 9 9 9 8 8 7 7 7 6 6 6 5 4 5 8 7 8 8 10 8 8 7 8 9 8 8 8 5 4 1 3 2 2 4 5 7 9 9 10 10 10 9 9 9 8 8 9
5 5 6 8 9 7 3 3 11 12 9 9 8 8 6 7 5 6 3 5 2 2 1 9 8 6 8 7 6 7 8 8 7 4 3 7 5 8 10 8 9 9 8 7 8 7 7 6 6 5 6 5 4 2 8 11 10 8 7 7 7 7 8 8 9 8 8 8 7 4 5 6 10 10 10 9 8 8 9 9 9 9 9 8 8 7
4 3 6 9 9 9 6 7 7 9 10 9 7 7 6 7 7 8 7 9 7 6 9 11 11 8 5 6 5 4 5 4 7 6 3 5 6 7 7 9 11 7 7 8 8 8 7 6 6 6 5 5 4 5 4 5 6 7 8 8 8 7 8 9 10 11 11 11 10 10 10 11 11 9 7 6 6 6 4 6 6 7 8 8 7 4
7 2 2 6 6 7 9 7 7 8 8 9 8 8 7 5 6 6 5 6 5 6 5 12 14 10 5 4 6 4 6 7 8 7 6 6 4 6 2 4 6 11 9 9 7 8 7 6 6 4 4 5 5 3 4 2 5 6 7 7 7 7 7 7 7 8 9 10 10 10 9 7 6 7 7 5 5 7 3 3 3 4 5 7 6 5
7 3 5 5 3 4 6 9 9 6 1 5 8 8 8 7 4 6 4 5 6 4 5 4 5 7 7 6 8 8 7 9 9 9 12 11 14 13 15 12 4 6 9 10 8 6 7 7 6 6 5 4 4 5 4 3 4 4 4 4 5 6 5 4 6 6 6 6 6 6 6 6 6 6 6 4 2 5 2 6 5 3 1 4 5 5
3 4 5 5 6 4 8 9 9 7 2 5 11 10 6 4 2 5 6 7 6 5 4 4 4 7 7 7 9 11 11 11 11 8 7 12 14 17 16 14 13 13 11 8 7 7 7 8 7 6 5 4 5 6 4 4 5 5 5 3 5 3 2 5 5 6 6 4 5 6 6 6 7 8 6 4 5 5 1 2 7 7 4 4 3 3
6 8 6 6 5 3 11 9 9 6 9 6 4 4 10 8 4 1 4 5 6 5 4 6 7 7 8 8 9 10 11 10 10 11 11 10 10 12 13 15 16 16 17 18 16 15 14 11 8 7 6 6 5 6 6 7 7 6 5 4 5 6 5 5 6 7 5 5 5 5 5 6 6 6 8 9 9 7 7 6 6 7 5 5 4 4
7 10 5 7 7 5 8 7 4 7 6 7 2 3 3 5 6 8 8 6 5 4 5 9 10 10 11 10 12 13 13 14 14 13 13 13 12 10 9 10 11 13 14 13 14 15 15 15 15 13 12 10 10 9 7 5 7 7 6 6 6 6 6 6 6 7 6 6 6 6 6 6 7 6 6 6 6 7 8 7 6 6 6 5 4 5
3 4 3 1 5 3 4 7 6 2 6 5 5 3 2 4 9 11 9 6 5 5 6 9 10 11 12 12 13 13 14 15 15 15 14 13 11 10 10 10 10 12 13 10 10 11 12 12 11 12 12 12 12 12 12 12 11 7 6 6 6 6 6 7 7 7 6 7 6 6 6 7 7 8 7 7 7 7 7 7 7 7 6 7 7 7
5 6 6 6 5 5 6 9 3 4 7 7 6 5 1 4 7 3 4 6 4 3 6 9 10 11 12 12 13 13 13 13 13 12 13 13 13 13 13 12 10 8 9 7 7 8 8 8 9 10 11 11 12 11 11 11 12 11 10 7 5 5 5 4 5 5 5 4 5 5 6 6 6 7 7 7 7 7 7 7 8 8 8 8 7 7
3 3 6 5 3 5 4 5 5 5 7 5 6 6 3 2 5 4 8 8 4 5 6 7 8 9 11 11 10 10 11 10 10 9 9 11 12 12 12 11 10 9 9 8 7 8 8 7 5 6 6 8 9 10 9 9 10 9 9 9 8 6 6 6 6 5 5 6 4 4 5 5 5 5 5 6 7 8 7 8 7 7 6 7 7 7
2 4 5 4 4 2 7 8 6 5 3 3 6 5 5 3 3 4 3 5 4 2 3 8 7 7 7 5 5 4 5 3 8 7 6 8 10 10 11 10 10 10 9 8 7 7 6 8 8 7 4 5 6 5 6 8 10 10 9 10 6 3 4 5 3 4 4 3 4 3 3 2 3 3 2 3 5 5 7 6 6 6 5 5 6 6
5 6 5 7 6 5 7 7 5 6 3 4 8 5 6 4 3 3 6 4 4 6 1 1 3 5 5 4 3 6 4 5 7 7 7 8 8 8 7 8 8 9 10 10 9 7 9 7 7 8 9 8 7 7 7 5 4 5 7 8 10 9 9 8 8 5 2 2 5 4 2 2 3 4 3 3 3 4 5 4 4 5 5 5 5 5
1 3 6 9 8 7 7 5 4 4 4 5 5 6 5 4 4 5 3 8 3 6 3 7 5 4 2 3 4 7 11 10 10 9 7 7 7 8 7 6 6 7 10 10 10 10 6 7 7 8 8 7 8 8 7 5 3 3 3 4 5 6 6 7 6 6 4 4 2 2 2 0 1 3 2 2 5 4 2 3 4 4 4 4 4 5
3 3 4 4 8 8 5 9 2 4 2 8 6 5 6 5 4 2 6 2 6 7 9 7 8 8 10 8 8 9 9 10 9 8 8 7 7 5 5 5 6 7 7 9 9 9 7 6 6 6 7 7 6 6 6 6 5 4 3 2 2 3 5 5 6 6 5 4 5 5 5 3 3 2 3 3 4 5 6 4 4 5 5 5 5 4
3 2 4 2 3 3 3 6 4 1 3 4 6 0 8 3 5 4 6 9 7 8 8 8 7 8 7 8 9 9 10 9 7 7 6 6 5 5 5 6 7 7 7 7 7 9 8 6 7 6 6 6 6 6 5 6 6 5 5 5 4 4 6 6 6 6 6 6 6 5 5 6 6 5 4 5 5 6 6 6 6 7 6 6 6 6
6 4 3 4 4 5 4 2 4 5 3 7 5 4 6 9 5 6 9 9 8 6 8 7 7 7 6 6 6 7 6 7 6 5 5 5 5 5 7 6 6 6 6 7 7 8 8 7 7 7 6 5 5 5 5 4 5 5 5 6 5 6 7 7 6 7 7 6 6 6 6 6 7 7 7 7 7 7 7 8 7 7 7 7 7 7
8 5 3 3 6 3 4 4 4 4 7 7 8 8 8 9 11 10 9 6 7 6 5 6 6 5 5 5 6 6 6 6 6 6 5 5 5 5 5 6 6 6 6 6 6 7 7 7 8 8 7 6 6 5 5 5 6 6 7 7 7 7 7 7 7 7 7 7 7 7 6 6 7 7 6 7 8 8 8 9 9 8 7 7 8 7
4 5 2 3 7 11 10 9 7 7 8 9 8 8 8 8 8 7 6 7 7 7 5 5 4 5 5 5 4 5 5 5 4 5 4 4 4 5 4 5 5 6 7 6 6 7 7 6 7 7 8 7 7 7 6 6 5 6 7 7 7 7 7 7 7 7 7 7 8 8 9 8 8 7 7 8 8 8 8 9 9 9 9 9 9 9
5 3 2 1 5 3 4 7 9 9 9 8 9 8 8 7 7 7 7 6 6 5 6 5 4 5 5 4 5 5 4 3 3 3 2 2 1 1 2 1 2 2 4 5 7 8 8 8 8 8 9 9 8 8 7 8 7 8 8 8 8 8 8 8 7 8 8 8 9 9 9 9 8 8 8 9 9 9 9 8 9 9 11 11 10 10
3 4 2 2 0 2 8 8 9 8 7 7 6 7 8 7 7 7 5 6 5 5 5 4 2 3 1 1 2 3 3 1 1 2 3 3 2 2 2 2 2 2 4 5 6 6 7 8 9 10 10 10 9 9 9 8 9 9 9 9 9 9 9 9 8 8 8 8 8 8 9 9 8 9 9 9 9 8 9 9 9 9 5 8 11 11
4 5 1 2 3 6 8 8 7 7 6 7 8 6 7 6 5 5 6 4 2 3 2 3 2 1 4 3 5 4 3 3 1 2 4 4 5 4 4 6 7 8 7 7 7 7 7 8 9 10 10 10 10 9 9 9 9 9 10 9 9 10 10 10 10 9 10 9 9 9 9 9 10 10 9 9 10 11 11 11 10 7 6 4 7 8
5 1 1 5 3 3 3 5 5 2 4 6 5 6 6 3 4 3 1 2 2 3 3 4 6 4 3 2 3 4 5 5 6 6 6 5 5 7 9 9 9 9 9 10 10 10 10 10 10 10 11 11 10 10 10 10 10 10 10 10 9 9 10 10 9 10 10 10 10 9 9 9 10 10 11 11 11 11 11 4 5 1 3 3 4 4
3 3 2 1 1 1 5 7 3 5 7 6 6 4 3 2 1 1 2 2 3 3 2 5 5 4 4 5 4 2 4 5 6 6 6 6 7 7 8 8 9 9 9 10 11 11 10 10 11 12 13 12 10 10 11 11 11 10 10 10 10 11 11 11 10 10 10 10 9 9 9 9 9 9 10 11 11 11 11 10 4 10 9 8 7 6
Wind_Direction
174 221 208 215 227 205 218 229 241 334 324 331 278 210 224 222 210 223 192 147 197 227 208 218 231 238 224 234 208 179 184 207 217 206 177 190 191 198 189 193 186 184 190 183 178 196 202 189 184 206 177 146 145 142 192 212 132 190 152 145 134 132 125 135 143 140 147 140 129 127 141 149 147 141 131 110 96 96 85 103 118 109 101 113 125 133
212 228 224 216 230 218 205 221 241 287 302 270 263 256 234 233 230 188 218 131 176 240 221 229 232 223 231 234 199 167 189 211 211 205 191 198 188 197 207 198 189 182 180 179 171 196 204 191 181 193 177 135 140 126 124 101 163 174 137 122 135 134 134 146 141 140 149 150 148 145 153 146 134 134 144 117 95 87 95 87 76 99 110 115 113 104
214 230 229 228 226 21 19 323 294 265 252 246 262 235 247 215 236 182 200 114 195 203 245 228 222 231 227 230 149 171 195 203 208 203 195 205 187 193 207 199 183 182 181 178 181 190 205 202 181 168 113 85 36 297 129 137 182 137 130 140 143 141 146 145 141 152 155 150 141 148 134 136 132 94 82 96 97 104 103 82 82 67 79 89 103 116
218 221 235 231 188 187 218 239 262 249 243 241 228 247 231 226 222 165 204 209 215 221 235 221 214 227 217 179 186 181 194 199 188 194 196 205 184 209 203 186 180 190 185 184 174 184 197 186 175 103 74 90 91 110 144 186 162 158 140 147 150 142 148 150 150 160 141 141 149 125 118 105 97 105 104 114 108 104 121 113 98 98 98 99 97 100
228 221 192 213 153 203 224 217 228 228 223 228 244 239 239 231 220 248 176 210 201 221 254 278 246 219 170 191 195 179 179 184 188 191 197 201 190 194 177 181 184 190 187 179 169 180 98 73 22 58 64 175 182 160 184 179 166 137 130 139 143 143 147 142 144 142 144 144 137 116 117 112 111 131 139 143 137 127 108 115 111 94 90 83 69 75
250 127 116 144 185 212 221 218 216 225 231 217 227 249 251 257 242 200 133 198 208 220 207 230 231 209 182 200 197 174 185 210 197 210 195 193 202 175 180 187 185 188 186 172 97 65 73 64 74 148 176 178 171 157 188 168 108 89 80 83 66 72 134 141 146 147 152 141 132 135 136 139 146 144 166 151 137 150 141 105 113 112 92 89 112 93
238 120 187 213 215 218 218 231 203 217 235 230 201 222 247 263 229 227 190 213 229 239 179 211 245 214 177 197 198 180 195 205 193 191 204 196 196 168 158 199 189 177 160 77 89 136 146 163 181 180 161 166 164 154 163 103 87 109 163 86 91 89 131 125 119 135 136 125 131 139 146 152 153 152 146 126 123 108 108 119 101 96 99 92 75 65
236 161 215 190 205 216 218 223 206 205 232 241 169 190 226 242 221 235 242 223 240 174 322 219 227 227 177 203 188 165 194 195 164 170 189 202 208 174 189 196 219 184 91 128 166 161 162 174 172 156 158 157 150 150 125 108 129 172 131 86 59 65 106 108 102 95 67 122 137 152 161 156 145 143 117 126 118 116 117 114 119 115 107 106 95 93
209 210 205 199 212 214 219 225 199 203 230 236 260 191 210 230 224 226 236 243 248 242 217 208 218 232 249 208 156 171 206 180 160 171 176 233 182 70 108 223 188 111 133 160 168 165 170 177 187 161 147 155 148 144 114 111 125 91 88 108 135 132 117 113 87 57 52 50 16 345 203 170 136 132 136 133 135 126 122 127 123 104 96 79 79 85
206 220 199 210 201 216 225 223 204 190 226 172 245 223 220 218 228 226 235 235 229 240 243 218 204 232 207 180 157 189 214 169 197 174 159 173 182 200 165 209 158 149 144 154 164 161 171 180 181 149 143 148 153 138 125 136 146 140 132 107 85 82 99 117 116 101 84 81 101 324 282 170 132 156 149 142 131 130 130 117 112 118 115 112 103 82
40 31 286 204 205 226 248 208 213 181 219 54 226 217 213 221 226 225 245 240 236 230 233 232 215 226 222 164 220 204 213 166 152 138 195 166 183 196 179 206 159 129 137 145 152 158 159 162 169 160 148 149 143 134 134 144 147 137 127 131 130 158 105 150 133 131 136 145 135 205 247 150 159 160 151 138 144 139 136 134 136 126 116 112 106 104
207 207 211 217 243 281 309 230 212 247 232 198 222 226 198 210 216 220 218 229 233 245 234 214 220 205 248 184 200 98 87 155 174 147 124 142 141 157 165 219 151 141 144 154 154 151 158 165 156 161 159 151 139 132 135 139 134 131 134 144 142 160 160 174 157 142 162 157 149 224 181 173 165 165 155 156 145 145 141 140 134 121 121 118 114 108
225 205 202 213 214 249 212 245 187 214 225 224 224 225 220 201 217 217 215 216 219 236 228 223 194 205 233 68 75 85 77 56 84 117 131 137 166 172 205 169 171 149 154 151 144 145 152 164 162 161 158 155 144 139 133 137 136 136 146 149 148 157 164 171 160 155 162 174 193 211 154 163 166 168 164 153 152 145 144 148 136 140 131 130 124 114
212 221 195 211 192 204 238 224 177 200 202 213 221 214 218 214 196 220 215 225 237 213 122 225 221 243 258 149 140 123 103 99 110 126 130 146 166 174 147 138 147 152 153 150 146 148 152 156 159 165 161 157 157 144 135 134 139 147 155 158 158 150 163 165 164 156 164 175 194 172 155 160 169 162 160 159 152 154 147 143 143 142 138 126 122 126
206 197 206 206 202 176 221 240 216 208 191 215 227 228 216 233 231 217 228 229 220 229 175 177 182 229 228 91 107 105 125 145 139 119 126 133 122 114 123 121 121 133 145 150 147 149 156 163 166 168 159 146 146 142 135 132 156 151 158 165 154 151 162 168 158 160 159 159 167 164 162 165 164 158 164 159 156 155 146 148 150 139 135 134 132 122
224 233 194 201 222 177 212 221 251 216 213 211 227 227 237 216 210 260 29 344 355 268 177 192 227 222 221 121 113 132 120 129 117 105 113 107 106 103 100 102 110 126 134 147 152 149 166 172 168 169 171 155 142 135 129 140 151 159 157 167 153 157 165 169 167 162 156 150 163 166 175 169 158 167 162 150 158 152 152 152 148 141 137 135 128 123
217 233 204 186 211 215 205 212 227 239 230 185 221 228 236 247 254 246 174 198 180 248 249 165 218 226 114 194 163 151 163 134 126 111 102 101 93 100 98 99 105 115 134 142 152 154 173 173 165 166 168 165 135 142 147 148 146 147 151 152 145 151 159 165 164 160 158 150 161 171 181 174 167 167 150 154 156 154 155 153 143 144 135 129 133 131
256 240 174 190 191 211 227 221 233 215 249 117 251 241 243 296 306 278 266 152 225 242 237 221 207 225 209 199 180 168 173 180 129 107 88 81 102 94 99 111 115 117 120 121 125 138 148 169 168 159 163 164 155 156 146 136 131 137 144 148 154 152 154 161 151 133 138 151 165 180 179 179 164 151 150 149 158 157 160 156 149 139 141 141 139 142
220 248 219 203 227 204 202 243 239 240 237 250 238 166 262 186 216 218 274 236 219 222 247 217 206 240 247 190 164 178 179 170 119 122 114 125 112 111 105 108 111 112 110 113 121 122 136 145 145 144 156 149 156 152 142 140 139 136 141 148 152 149 143 128 121 120 117 118 190 192 197 176 163 155 157 154 164 168 164 163 154 150 146 142 147 148
216 243 234 222 231 186 199 206 230 212 214 239 268 250 213 254 238 232 203 249 242 232 219 230 212 241 239 323 138 201 192 139 150 171 144 127 118 107 112 105 116 122 118 121 122 128 131 138 144 155 162 159 155 155 149 147 141 137 138 143 136 132 135 146 152 151 155 154 211 216 204 189 158 148 154 160 169 175 172 165 160 155 149 152 153 151
229 210 247 181 237 234 211 199 224 221 213 204 218 238 222 224 284 251 240 251 236 235 231 229 226 204 63 328 132 136 95 92 125 121 114 128 133 136 118 126 116 121 123 118 126 126 126 134 132 132 152 152 152 151 151 146 147 145 145 149 153 148 149 151 154 154 152 155 198 226 201 175 160 161 165 175 176 182 175 168 164 160 156 154 159 155
241 209 236 252 248 218 239 213 218 226 224 217 217 224 233 221 212 217 224 198 259 263 243 232 232 82 24 52 120 130 138 133 132 140 135 113 117 109 118 120 125 121 119 119 117 130 129 134 145 147 150 151 148 144 145 141 145 152 152 152 158 159 161 162 159 160 153 136 160 239 201 167 161 159 163 199 188 181 175 169 168 166 162 161 156 167
0 266 257 228 230 253 245 33 279 250 285 266 232 219 226 237 238 237 243 214 222 232 265 258 264 128 354 32 87 123 127 134 115 119 113 114 116 119 123 125 124 124 129 135 139 136 133 135 138 142 148 145 133 132 144 150 151 152 152 156 155 156 163 167 163 161 160 155 179 209 197 165 167 162 176 194 193 177 172 173 169 170 167 162 161 168
185 226 225 251 244 245 267 270 304 268 271 250 245 272 240 236 230 251 268 308 297 247 240 231 237 100 102 63 94 128 122 117 110 117 119 119 130 119 135 134 139 137 136 138 147 136 136 152 149 152 146 150 146 143 154 150 149 152 157 164 163 158 160 164 169 167 174 179 190 196 175 175 176 176 183 188 184 181 174 174 173 175 169 167 162 171
195 182 266 259 240 244 234 210 231 224 233 237 246 232 241 245 252 244 250 167 227 240 255 236 236 135 143 138 128 134 120 104 108 151 126 142 136 140 144 150 143 143 144 142 144 147 148 153 169 161 167 163 158 174 153 156 156 158 167 175 180 170 172 172 177 177 181 182 185 189 185 178 178 177 179 181 186 177 173 174 176 177 177 167 170 168
213 199 220 240 235 226 222 210 216 214 217 220 238 252 285 252 248 261 248 235 247 242 255 245 158 46 46 129 147 157 118 127 169 171 153 168 137 144 164 144 145 143 139 140 149 153 154 160 166 152 155 172 179 162 149 137 152 154 158 171 173 166 175 175 181 181 177 177 181 186 186 183 172 175 172 181 184 179 179 177 179 176 179 167 171 172
196 162 207 225 248 281 27 315 334 328 321 247 216 226 235 245 264 266 275 246 240 235 234 20 93 142 124 87 82 113 122 118 116 124 126 131 138 121 135 133 140 139 138 135 134 133 140 139 146 145 167 154 142 119 145 137 163 160 163 166 185 166 170 170 179 183 183 179 183 185 186 182 176 173 180 175 180 182 188 184 177 174 181 172 177 175
186 208 206 208 207 167 294 338 331 329 338 288 227 200 202 230 221 243 248 265 327 319 201 42 108 137 119 82 93 80 106 124 118 110 122 114 118 132 131 137 139 135 125 126 130 131 127 125 127 131 112 115 136 152 146 124 153 160 169 160 168 165 167 170 171 167 118 57 277 197 71 358 330 255 189 177 178 189 193 184 175 178 180 177 180 185
218 229 177 205 215 197 157 304 314 323 323 331 6 19 30 26 50 95 53 32 31 341 17 90 90 85 84 92 93 87 104 105 99 93 88 115 140 129 139 156 154 138 145 135 121 118 116 120 124 129 143 146 119 140 148 151 159 159 150 172 168 159 164 159 161 153 143 165 189 181 201 196 207 211 199 182 176 187 195 183 181 182 177 180 186 195
248 229 179 207 219 210 200 179 251 296 310 309 288 287 359 9 35 38 42 21 47 90 109 104 98 85 53 70 92 116 92 90 109 124 205 171 162 148 170 162 143 141 127 125 122 115 115 123 142 120 115 133 143 133 95 109 141 143 159 157 160 156 161 161 162 156 155 170 183 183 204 194 200 173 181 157 159 196 190 168 166 174 178 179 186 161
244 123 169 194 207 209 203 185 186 228 274 287 284 274 276 325 338 343 348 21 15 98 93 134 118 100 89 100 122 134 109 103 91 48 47 38 46 325 31 160 123 149 165 129 135 125 117 127 96 93 82 70 67 70 94 148 132 122 114 130 138 154 148 151 146 146 156 159 166 162 166 162 163 142 146 152 163 135 142 211 122 54 59 67 70 87
246 135 191 184 210 176 179 184 179 168 198 296 290 283 285 298 327 347 34 18 352 24 42 357 166 115 104 90 82 97 107 90 69 52 53 50 52 47 25 352 83 101 112 111 111 122 127 112 104 86 65 83 106 84 79 62 82 81 100 95 110 112 125 128 130 128 126 121 125 132 134 134 135 127 113 114 69 109 112 107 83 108 112 115 107 109
175 181 188 192 214 194 172 169 152 140 175 255 253 241 243 239 214 79 76 59 49 351 333 292 75 91 91 76 79 65 69 68 63 74 71 51 49 43 37 26 29 43 50 94 99 87 83 74 61 55 58 72 86 140 124 90 74 97 113 157 104 72 68 121 120 115 115 121 130 133 130 126 126 116 121 114 77 57 355 232 160 161 150 137 156 134
218 215 206 193 223 190 170 179 175 180 213 228 38 192 201 191 164 151 67 54 44 25 66 64 98 105 102 98 92 89 78 71 74 67 57 66 55 39 32 33 34 39 30 28 31 38 42 46 53 61 63 68 63 68 67 68 82 95 97 97 129 151 165 144 135 131 110 127 130 123 123 130 128 125 137 148 159 176 166 191 168 151 169 159 147 160
208 210 219 204 222 199 159 175 205 223 221 63 174 73 100 147 159 129 100 81 101 117 118 104 101 95 95 98 98 98 93 88 81 75 70 71 77 79 60 37 24 33 29 32 35 32 31 32 23 25 29 36 39 42 64 106 129 119 116 114 101 109 119 116 103 107 130 119 120 122 131 133 133 143 143 140 135 143 150 152 146 156 155 146 150 149
205 225 196 129 239 121 168 182 214 194 78 114 94 129 87 154 130 118 100 96 93 110 116 107 104 112 113 109 106 99 97 92 84 76 78 75 77 80 71 62 54 47 38 32 31 31 30 25 19 12 17 19 26 30 31 30 24 52 74 74 73 81 80 94 107 98 110 118 123 121 116 121 124 131 132 131 131 132 135 136 146 138 137 140 145 151
6 213 229 229 179 217 212 208 182 109 152 112 127 109 309 141 165 194 177 109 65 92 118 114 115 115 116 119 119 118 110 99 83 79 80 90 93 91 89 88 83 87 94 81 67 59 42 30 26 19 16 25 18 18 20 20 24 25 27 41 52 49 54 35 49 81 91 96 92 101 116 117 125 128 135 137 143 141 137 139 143 140 142 140 142 142
23 18 12 323 222 228 234 213 186 202 220 145 70 89 26 40 9 24 103 103 79 79 106 120 122 116 119 126 132 135 142 101 92 94 93 92 94 100 105 104 106 110 118 124 116 105 97 89 67 33 23 22 22 12 7 2 7 14 23 19 9 12 39 38 57 78 77 67 74 92 104 110 113 116 119 141 136 134 142 143 146 135 143 144 150 158
240 296 290 287 284 255 250 242 235 222 54 39 79 17 40 355 329 352 259 147 84 92 175 129 131 146 124 132 122 176 233 152 107 98 95 84 82 80 85 87 88 79 71 81 106 111 167 164 158 157 122 54 45 36 33 21 18 19 20 8 333 337 18 42 40 31 44 76 120 108 58 58 83 77 103 107 116 136 151 152 148 147 157 147 158 147
201 216 219 236 249 243 262 258 271 63 74 14 40 2 12 2 32 268 234 169 145 125 116 86 92 40 61 8 118 27 351 144 126 118 109 100 82 73 75 79 71 71 63 51 28 51 61 54 60 53 48 52 42 25 20 15 31 27 20 24 5 25 21 16 3 351 36 19 18 25 104 95 119 123 194 164 142 170 164 169 151 159 179 163 180 167
188 220 214 238 242 237 237 258 123 111 64 21 12 342 344 326 287 203 218 97 122 79 11 78 77 46 94 59 13 83 54 71 103 116 109 92 96 86 76 69 74 70 65 49 32 6 65 53 40 42 48 48 31 23 14 10 18 27 20 18 17 11 0 344 340 337 351 350 333 258 276 213 153 145 218 223 161 215 235 219 191 181 187 181 223 190
227 268 256 242 248 251 236 250 45 86 3 327 347 7 348 289 204 109 98 157 107 101 83 90 87 68 62 73 82 68 82 93 101 98 96 94 85 82 65 64 60 52 54 63 51 29 15 48 43 37 36 38 28 24 15 6 360 0 10 293 347 359 330 329 328 322 324 321 307 319 314 297 264 257 250 260 275 237 221 226 228 214 218 225 230 217
25 329 264 277 335 303 263 245 195 75 92 299 323 351 26 26 78 127 129 87 89 92 91 81 78 86 88 88 81 93 88 89 95 97 95 94 83 71 60 48 42 36 36 28 32 35 9 9 24 21 18 23 26 16 11 356 343 350 337 330 353 344 332 334 319 321 322 321 316 304 293 292 299 282 250 256 251 249 238 232 227 231 230 229 229 219
11 284 307 62 10 300 303 349 45 57 47 17 353 85 68 67 101 102 96 81 51 106 109 102 82 74 74 86 96 93 88 95 83 74 71 62 47 43 31 36 35 21 24 22 26 27 5 1 5 353 0 358 9 356 341 339 325 330 324 306 332 330 317 312 318 323 317 312 301 291 282 274 256 245 250 251 246 246 244 238 233 229 222 215 215 206
25 44 11 34 36 19 55 91 106 82 66 65 76 85 80 60 60 72 91 108 128 106 90 96 91 80 68 81 81 58 72 57 45 44 34 35 26 26 15 4 21 21 7 8 10 20 2 352 344 337 331 335 334 336 329 332 322 322 309 310 315 308 305 304 306 303 303 296 287 288 287 278 277 283 270 247 237 240 236 232 229 228 221 220 213 214
68 46 5 83 93 98 80 89 103 89 83 82 83 91 91 86 85 86 93 102 70 58 56 89 88 67 55 33 37 63 51 39 33 29 20 21 17 26 10 8 7 4 357 350 351 358 344 331 324 317 315 316 318 317 314 305 300 294 291 297 298 297 297 299 295 292 291 291 292 292 289 284 280 270 263 264 260 243 237 238 223 224 227 220 217 215
53 351 25 70 132 220 92 122 105 107 106 101 96 93 91 93 96 93 89 91 100 98 95 67 66 64 47 40 43 31 34 46 25 11 8 355 21 16 26 346 24 356 349 335 337 335 325 324 317 313 310 308 307 304 301 298 293 289 287 284 282 281 284 286 289 287 282 275 274 271 270 274 273 272 267 257 247 247 246 239 237 229 228 229 225 219
102 335 258 134 208 11 110 118 117 119 124 119 114 115 111 113 112 106 103 112 107 118 95 98 132 100 118 90 63 358 339 345 347 338 334 330 325 276 253 229 242 309 313 319 311 304 307 308 308 309 308 303 301 296 292 286 282 280 283 284 283 281 279 277 277 278 279 285 287 285 280 271 269 269 269 274 273 265 252 247 253 244 231 252 251 234
20 267 304 13 76 110 127 145 143 130 117 105 83 85 89 96 102 92 78 75 64 77 45 71 102 340 30 357 13 333 323 309 291 300 300 317 313 295 278 293 305 295 299 300 304 306 299 305 301 298 298 296 299 298 293 289 284 284 284 284 281 279 277 273 270 268 269 270 270 269 271 272 271 270 264 256 251 249 254 255 247 276 292 15 16 7
251 262 43 236 158 191 173 146 145 161 157 126 105 92 78 58 74 101 176 104 38 22 341 14 322 23 256 307 289 310 323 314 320 330 325 306 296 312 321 319 314 320 314 303 306 307 306 297 290 292 296 301 295 287 284 287 290 289 287 286 285 283 280 275 268 266 267 267 265 264 262 259 257 255 254 254 257 261 256 96 100 136 227 211 103 80
359 351 314 341 305 75 105 132 120 88 92 94 105 103 83 71 83 18 36 16 342 327 331 311 315 298 319 328 12 337 311 333 332 331 317 305 314 318 313 310 304 299 305 323 311 298 289 288 285 285 283 275 269 281 286 280 273 278 284 288 288 285 277 270 267 265 263 261 261 264 267 265 261 256 254 254 254 252 252 250 142 84 71 64 111 118